Location: Maiden
(35.5760°N, 81.2120°W)
Time: 02:51:29
(UTC-04:00)

IGS 5A - Pass Details

Date: 02 August 2020
Orbit: 582 x 589 km, 97.6° (Epoch: 08 August)

Event Time Altitude Azimuth Distance (km) Brightness Sun altitude
Exits shadow 23:01:49 47° 271° (W) 774 4.2 -26.3°
Drops below altitude 10° 23:05:37 10° 336° (NNW) 1,906 7.0 -26.8°
Sets 23:07:51 0° 342° (NNW) 2,810 8.0 -27.1°
